Regional Weather Roundup
Issued by NWS Grand Forks, ND

Home | Current Version | Previous Version | Text Only | Print | Product List | Glossary Off
Versions: 1 2 3 4 5 6 7 8 9 10 11 12 13 14 15 16 17 18 19 20 21 22 23 24 25 26 27 28 29 30 31 32 33 34 35 36 37 38 39 40 41 42 43 44 45 46 47 48 49 50

411
ASUS43 KFGF 081210
RWRFGF
PRAIRIE TO PINES  WEATHER ROUNDUP
NATIONAL WEATHER SERVICE EASTERN NORTH DAKOTA/GRAND FORKS ND
600 AM CST MON FEB 08 2016

 **SATELLITE DATA USED TO AUGMENT SKY COVER AT AUTOMATED STATIONS**
 *****  WEATHER ACROSS EASTERN NORTH DAKOTA  *****

CITY           SKY/WX    TMP DP  RH WIND       PRES   REMARKS
GRAND FORKS    LGT SNOW  13   8  81 N18       30.14R BLWGSNOWWCI  -4
6HR MIN TEMP:  13; 6HR MAX TEMP:  15; 6HR PCP:  0.01;

GRAND FRKS AFB FLURRIES  14   9  79 N21       30.14S WCI  -4
GRAND FRKS NWS   N/A     10 N/A N/A VRB15       N/A  WCI  -6
DEVILS LAKE    FLURRIES  16  12  84 N13       30.16R WCI   2
6HR MIN TEMP:  16; 6HR MAX TEMP:  19; 6HR PCP: TRACE;

FARGO          FOG       13   9  84 N30G40    30.13R VSB 1/2 WCI  -8
WAHPETON ARPT  CLOUDY    14   9  79 N31G41    30.09R VSB 3/4 WCI  -7
$$

 ***** WEATHER ACROSS CENTRAL AND WESTERN NORTH DAKOTA  *****

CITY           SKY/WX    TMP DP  RH WIND       PRES   REMARKS
BISMARCK       CLEAR     27  17  66 NW20G31   30.24S WCI  13
6HR MIN TEMP:  27; 6HR MAX TEMP:  30;

MINOT          CLEAR     24  15  68 W21       30.24R WCI   9
6HR MIN TEMP:  24; 6HR MAX TEMP:  29; 6HR PCP: TRACE;

JAMESTOWN      CLOUDY    20  12  71 NW25      30.12S WCI   2
6HR MIN TEMP:  20; 6HR MAX TEMP:  22; 6HR PCP: TRACE;

MINOT AFB      CLEAR     22  17  84 NW21G26   30.24R WCI   6
GARRISON         N/A     20  17  88 NW21      30.24S WCI   4
WILLISTON      CLEAR     23  16  74 NW13      30.35R WCI  11
6HR MIN TEMP:  23; 6HR MAX TEMP:  27;

DICKINSON      CLEAR     18  13  80 W14       30.28S WCI   4
6HR MIN TEMP:  17; 6HR MAX TEMP:  25;

HETTINGER      CLEAR     19  13  77 NW12      30.31S WCI   7
6HR MIN TEMP:  18; 6HR MAX TEMP:  26;

$$

 *****  OTHER AIRPORT OBSERVATIONS IN OUR AREA  *****

CITY           SKY/WX    TMP DP  RH WIND       PRES   REMARKS
WALHALLA       LGT SNOW  14  12  92 N24G33    30.17R WCI  -5
GRAFTON AIRPOR LGT SNOW  12   9  85 N16G22    30.17R WCI  -4
VALLEY CITY AR FLURRIES  18  12  79 N20G30    30.13S WCI   1
CANDO          NOT AVBL
CAVALIER APRT  FLURRIES  14   9  79 N16G25    30.16S WCI  -2
GWINNER        CLOUDY    21  14  73 N23G37    30.11S WCI   5
SHEYENNE NWR     N/A     16   9  74 N16       29.95S WCI   1
ROLLA          FAIR      14  10  85 N24G31    30.15R WCI  -5
 ***** THE ABOVE OBSERVATIONS ARE NON NWS ARE NOT QUALITY
       CONTROLLED AND MAY MIS-REPORT RAIN FOR SNOW...
$$

  *****  WEATHER ACROSS NORTHERN MINNESOTA  *****

CITY           SKY/WX    TMP DP  RH WIND       PRES   REMARKS
FLAG ISLAND    CLOUDY     3  -2  78 NW24      30.01R WCI -20
WARROAD        CLOUDY     3  -2  78 NW14G21   30.03R WCI -15
ROSEAU         CLOUDY     7   1  78 N17       30.05R WCI -12
HALLOCK        CLOUDY    10   7  85 N22G32    30.12R HAZE    WCI  -9
THF RVR FALLS  NOT AVBL
BAUDETTE       CLOUDY     2  -4  76 NW18      29.97R WCI -19
6HR MIN TEMP:   2; 6HR MAX TEMP:   4; 6HR PCP: TRACE;

WASKISH        FLURRIES   3   0  85 NW14      29.97R WCI -15
CROOKSTON      LGT SNOW  10   9  92 N26G36    30.12R VSB 1   WCI -11
STEPHEN NDAWN    N/A     10   7  85 N20         N/A  WCI  -8
GREENBUSH NDAW   N/A      7   3  85 NW22        N/A  WCI -14
$$
  *****  WEATHER ACROSS CENTRAL AND WEST MINNESOTA  *****

CITY           SKY/WX    TMP DP  RH WIND       PRES   REMARKS
FOSSTON        LGT SNOW   3   1  92 NW16G25   30.04R WCI -16
BEMIDJI        FLURRIES   3  -2  79 NW17G23   29.95R WCI -17
PARK RAPIDS    LGT SNOW   7  -1  70 NW17G28   29.93R WCI -12
6HR MIN TEMP:   6; 6HR MAX TEMP:   9; 6HR PCP: TRACE;

ELBOW LAKE     CLOUDY    10   5  80 NW26G39   30.02R WCI -11
WADENA         LGT SNOW   7   1  78 NW20G25   29.95R WCI -13
DETROIT LAKES  LGT SNOW   9   5  85 N25G40    30.02R WCI -13
MOORHEAD         N/A     10   9  92 N25       30.11R WCI -10
FERGUS FALLS   CLOUDY    10   7  85 N30G40    30.07R FOG     WCI -12
MORRIS MN      SNOW      12   9  85 N30G40    30.00R VSB 1/4 WCI  -9
STAPLES        FLURRIES   7   0  72 NW20G26   29.93R WCI -13
$$
  *****  WEATHER ELSEWHERE ACROSS MINNESOTA  *****

CITY           SKY/WX    TMP DP  RH WIND       PRES   REMARKS
DULUTH         LGT SNOW   9   4  80 NW20G28   29.75R VSB 1   WCI -10
6HR MIN TEMP:   9; 6HR MAX TEMP:  16; 6HR PCP: TRACE;

INTRNTL FALLS  LGT SNOW   6   1  80 NW14G24   29.90R WCI -11
6HR MIN TEMP:   6; 6HR MAX TEMP:   8; 6HR PCP:  0.02;

ELY            LGT SNOW   9   7  92 NW10G17   29.78R WCI  -6
CLOQUET        FLURRIES   9   3  78 NW12G26   29.79R WCI  -6
WHEATON        FLURRIES  16  10  79 NW26G39   30.10R WCI  -3
BRAINERD       MIX PCPN   6  -1  73 NW20G28   29.90R WCI -14
6HR MIN TEMP:   6; 6HR MAX TEMP:  11; 6HR PCP: TRACE;

HIBBING        MIX PCPN   5   0  79 NW18      29.82R WCI -15
6HR MIN TEMP:   5; 6HR MAX TEMP:   9; 6HR PCP: TRACE;

ALEXANDRIA     LGT SNOW   8   1  73 N24G36    29.95R WCI -13
6HR MIN TEMP:   8; 6HR MAX TEMP:  10; 6HR PCP: TRACE;

SAINT CLOUD    CLOUDY     9   2  73 NW17G24   29.89R WCI  -9
6HR MIN TEMP:   9; 6HR MAX TEMP:  13; 6HR PCP: TRACE;

MINNEAPOLIS    FLURRIES  13   5  70 NW16G26   29.85R WCI  -3
6HR MIN TEMP:  13; 6HR MAX TEMP:  16; 6HR PCP: TRACE;

$$

  *****  WEATHER ACROSS SOUTH DAKOTA  *****

CITY           SKY/WX    TMP DP  RH WIND       PRES   REMARKS
SIOUX FALLS    LGT SNOW  22  15  75 N32G41    30.03R BLWGSNOWWCI   3
6HR MIN TEMP:  21; 6HR MAX TEMP:  24; 6HR PCP: TRACE;

BROOKINGS      FLURRIES  17  12  80 N28G35    30.00R WCI  -2
WATERTOWN      FLURRIES  18  10  71 N26G35    30.03R WCI  -1
6HR MIN TEMP:  17; 6HR MAX TEMP:  20; 6HR PCP: TRACE;

HURON          CLOUDY    25  17  72 N25G32    30.12R WCI   9
6HR MIN TEMP:  25; 6HR MAX TEMP:  28; 6HR PCP: TRACE;

SISSETON         N/A     16  12  84 N30G36    30.08R WCI  -4
ABERDEEN       CLOUDY    24  16  71 N18G30    30.14R WCI  10
6HR MIN TEMP:  23; 6HR MAX TEMP:  28; 6HR PCP: TRACE;

MITCHELL       CLOUDY    27  17  66 N29G41    30.13R WCI  11
PIERRE         CLEAR     27  17  66 NW28G33   30.23R WCI  11
6HR MIN TEMP:  26; 6HR MAX TEMP:  32;

MOBRIDGE       CLEAR     27  17  66 NW24G31   30.19R WCI  12
RAPID CITY     CLOUDY    28   9  44 NW25G33   30.30F WCI  13
6HR MIN TEMP:  27; 6HR MAX TEMP:  31;

$$

  *****  SOME WEATHER IN NEARBY STATES *****

CITY           SKY/WX    TMP DP  RH WIND       PRES   REMARKS
GLASGOW MT     CLOUDY    20  14  77 NW5       30.40S WCI  13
6HR MIN TEMP:  19; 6HR MAX TEMP:  24;

GREAT FALLS MT CLOUDY    37  22  54 SW15      30.41R
6HR MIN TEMP:  30; 6HR MAX TEMP:  37;

CHEYENNE WY    CLOUDY    34  18  52 NW18G31   30.30S WCI  23
6HR MIN TEMP:  17; 6HR MAX TEMP:  34;

SCOTTSBLUFF NE CLOUDY    21  10  62 W10       30.36S WCI  10
6HR MIN TEMP:  21; 6HR MAX TEMP:  26;

OMAHA NE       FLURRIES  28  20  71 NW25G36   30.01R WCI  13
6HR MIN TEMP:  28; 6HR MAX TEMP:  31; 6HR PCP: TRACE;

DES MOINES IA  LGT SNOW  19  11  70 NW25G38   29.90R BLWGSNOWWCI   1
6HR MIN TEMP:  19; 6HR MAX TEMP:  29; 6HR PCP: TRACE;

DAVENPORT IA   LGT SNOW  20  15  81 NW20G26   29.74R WCI   4
6HR MIN TEMP:  20; 6HR MAX TEMP:  33; 6HR PCP: TRACE;

CHICAGO IL     FLURRIES  32  29  88 W8        29.61R WCI  25
6HR MIN TEMP:  29; 6HR MAX TEMP:  32; 6HR PCP: TRACE;

EAU CLAIRE WI  LGT SNOW  16   9  74 NW12G24   29.73R WCI   3
6HR MIN TEMP:  16; 6HR MAX TEMP:  22; 6HR PCP: TRACE;

LA CROSSE WI   FLURRIES  19  12  74 NW14      29.73R WCI   6
6HR MIN TEMP:  18; 6HR MAX TEMP:  26; 6HR PCP: TRACE;

$$

  *****  SOME NATIONAL WEATHER *****

CITY           SKY/WX    TMP DP  RH WIND       PRES   REMARKS
LA GUARDIA NY  CLOUDY    39  28  64 NE20G28   29.77R
6HR MIN TEMP:  38; 6HR MAX TEMP:  41;

RALEIGH NC     PTCLDY    28  23  81 CALM      29.83S
6HR MIN TEMP:  28; 6HR MAX TEMP:  38;

ATLANTA GA     PTCLDY    37  23  56 SW6       29.85S
6HR MIN TEMP:  37; 6HR MAX TEMP:  43;

NEW ORLEANS LA CLEAR     48  41  76 W10       30.10R
6HR MIN TEMP:  42; 6HR MAX TEMP:  48;

OKLAHOMA CITY  CLEAR     37  16  42 NW20      30.28R
6HR MIN TEMP:  37; 6HR MAX TEMP:  44;

ALBUQUERQUE NM CLOUDY    31  19  61 NW5       30.43R
6HR MIN TEMP:  30; 6HR MAX TEMP:  40;

SALT LAKE CITY PTCLDY    24  20  84 E7        30.66S WCI  16
6HR MIN TEMP:  24; 6HR MAX TEMP:  29;

LOS ANGELES CA CLEAR     56  34  43 CALM      30.10F
6HR MIN TEMP:  54; 6HR MAX TEMP:  70;

BOISE ID       CLEAR    C1F1C2F2C3F3C4F4C5F5C6F6C7F7C8F8C9F9CaFaCbFbCcFcCd!



USA.gov is the U.S. government's official web portal to all federal, state and local government web resources and services.